Location: Bergfeld
(52.0500°N, 11.7833°E)
Time: 02:37:39
(UTC+00:00)

NOSS 3-4 (A) - Pass Details

Date: 17 February 2020
Orbit: 900 x 1313 km, 63.4° (Epoch: 29 March)

Event Time Altitude Azimuth Distance (km) Brightness Sun altitude
Exits shadow 05:25:37 - 313° (NW) 3,244 5.7 -9.8°
Reaches altitude 10° 05:26:48 10° 315° (NW) 2,831 5.5 -9.6°
Maximum altitude 05:33:25 56° 34° (NNE) 1,301 4.3 -8.6°
Drops below altitude 10° 05:40:43 10° 112° (ESE) 3,120 7.8 -7.5°
Sets 05:43:40 0° 116° (ESE) 4,138 8.6 -7.0°
